User: anonymous   Login
Location: Unspecified
(0.0000°N, 0.0000°E)
Time: 10:57:53
(UTC+00:00)
Language:

Aussat K1 - Orbit

View from above orbital plane
View from above orbital plane
View from above satellite
View from above satellite

Ground track
Ground track

The orbit data is extracted from the following two-line orbital elements,

1 15993U 85076B   17012.27493045 -.00000250  00000-0  00000+0 0  9995
2 15993  15.3008   8.9237 0007096 269.5268 272.5959  0.99768603 85230
Epoch (UTC): 12 January 2017 06:35:53
Eccentricity: 0.0007096
inclination: 15.3008°
perigee height: 35898 km
apogee height: 35958 km
right ascension of ascending node: 8.9237°
argument of perigee: 269.5268°
revolutions per day: 0.99768603
mean anomaly at epoch: 272.5959°
orbit number at epoch: 8523

The dashed part of the orbit path shows where the satellite is in the earth's shadow,  

DLR